Portada
METAR-TAF:

METAR-TAF

Aeroports :

Plataforma petroliera

Euro, Països Baixos

latitud: 51-59-52N, longitud: 3-16-30E, altitud: 18 m

Observació

L'informe es va fer fa 26 minuts, a les 10:25 UTC
Vent 20 kt del Sud
Temperatura 9°C
Humitat 87%
Pressió 1003 hPa
Visibilitat 10 km o més
plugim

METAR: EHSA 161025Z AUTO 18020KT 9999 -DZ ///////// 09/07 Q1003 W07/H14

Hora: 11:51 (10:51 UTC)


TAF: manca

Observacions i pronòstics meteorològics de més de 4000 aeroports (METAR i TAF).

Les estacions disponibles són els punts grocs i vermells al mapa.

Posi el ratolí al punt desitjat per veure el nom de l'estació.

Feu clic per veure les observacions i els pronòstics meteorològics.

Per canviar el mapa: feu clic els botons verds amb una creu de color negre per apropar; al botó verd amb un guió per allunyar la imatge; o en les fletxes verdes per a mapes adjacents.


METAR-TAF: